CST,Max TemperatureF,Mean TemperatureF,Min TemperatureF,Max Dew PointF,MeanDew PointF,Min DewpointF,Max Humidity, Mean Humidity, Min Humidity, Max Sea Level PressureIn, Mean Sea Level PressureIn, Min Sea Level PressureIn, Max VisibilityMiles, Mean VisibilityMiles, Min VisibilityMiles, Max Wind SpeedMPH, Mean Wind SpeedMPH, Max Gust SpeedMPH,PrecipitationIn, CloudCover, Events, WindDirDegrees
2011-11-1,63,50,36,40,36,31,79,61,42,30.02,29.89,29.80,10,10,10,25,14,32,0.00,0,,357
2011-11-2,46,38,30,36,31,23,92,73,53,30.38,30.22,30.04,10,9,3,31,20,38,0.22,7,Rain-Snow,360
2011-11-3,49,36,23,25,20,17,88,59,29,30.43,30.35,30.22,10,10,10,15,6,20,0.00,0,,277
2011-11-4,53,40,27,27,24,20,81,58,35,30.26,30.09,29.91,10,10,10,23,13,30,0.00,0,,166
2011-11-5,59,50,40,39,31,25,63,50,36,29.89,29.65,29.46,10,10,10,36,20,46,0.00,0,,171
2011-11-6,56,43,30,39,27,19,82,54,26,30.10,29.86,29.45,10,10,10,26,7,35,0.00,0,,251
2011-11-7,52,39,26,40,30,19,92,64,35,30.18,30.13,30.07,10,9,3,20,8,24,0.12,5,Rain,56
2011-11-8,45,39,33,38,34,23,100,79,58,30.20,30.09,30.01,10,9,2,25,13,31,0.04,7,Rain,21
2011-11-9,51,39,26,25,20,16,72,48,24,30.39,30.32,30.21,10,10,10,28,13,35,0.00,0,,312
2011-11-10,51,36,21,27,20,16,81,55,28,30.38,30.22,29.93,10,10,10,12,6,15,0.00,0,,224
2011-11-11,66,48,30,27,21,17,75,45,15,29.90,29.80,29.67,10,10,10,16,8,20,0.00,0,,251
2011-11-12,61,45,28,35,29,22,75,55,35,29.66,29.47,29.28,10,10,10,16,6,21,0.00,0,,193
2011-11-13,57,48,39,33,26,14,56,42,27,29.60,29.49,29.30,10,10,10,29,12,37,0.00,1,,276
2011-11-14,59,49,38,30,25,20,59,40,21,29.75,29.64,29.57,10,10,10,17,11,24,0.00,1,,241
2011-11-15,53,38,23,29,21,12,64,48,32,30.11,29.87,29.65,10,10,8,22,10,25,0.00,0,,336
2011-11-16,42,32,21,28,19,7,88,57,25,30.39,30.28,30.12,10,8,1,24,8,30,T,5,Snow,291
2011-11-17,52,35,17,24,19,10,91,60,28,30.37,30.11,29.82,10,10,10,24,12,35,0.00,0,,210
2011-11-18,58,46,34,36,28,24,76,54,32,29.80,29.66,29.57,10,10,6,17,9,24,0.00,0,,179
2011-11-19,37,29,21,32,24,17,96,86,75,30.19,29.81,29.47,10,9,2,28,15,35,T,6,Rain-Snow,5
2011-11-20,36,25,13,21,16,10,88,70,52,30.38,30.29,30.19,10,10,10,13,5,15,0.00,0,,44
2011-11-21,41,28,14,27,20,11,88,69,50,30.28,30.19,30.10,10,10,6,9,3,12,0.00,2,,168
2011-11-22,58,40,21,30,25,19,92,63,33,30.12,30.08,30.00,10,9,5,10,3,14,0.00,0,,258
2011-11-23,65,49,32,29,26,23,69,45,20,30.17,30.11,30.04,10,10,10,13,7,15,0.00,0,,240
2011-11-24,68,52,36,43,34,28,92,58,24,30.02,29.88,29.78,10,10,10,22,10,30,0.00,0,,191
2011-11-25,51,46,41,45,42,33,96,74,52,29.78,29.70,29.64,10,7,2,21,7,23,0.00,4,,201
2011-11-26,47,37,26,31,16,3,58,40,22,30.38,30.16,29.78,10,10,10,43,26,53,0.00,0,,341
2011-11-27,47,33,18,9,4,-2,67,40,13,30.40,30.33,30.19,10,10,10,18,9,23,0.00,0,,312
2011-11-28,57,41,24,30,16,7,57,39,21,30.27,30.13,30.02,10,10,10,21,8,33,0.00,0,,252
2011-11-29,46,35,23,29,19,11,96,61,25,30.43,30.33,30.19,10,10,7,18,7,24,0.00,1,,331
2011-11-30,55,41,26,28,23,16,70,53,35,30.15,29.95,29.80,10,10,10,16,9,22,0.00,0,,185